OPS 4682 DEB, 19950

Orbit data source: Space-Track

OPS 4682 DEB, 19950 is space debris in LEO originally from a launch on Sat, 03 Apr 1965 UTC launched from the Air Force Western Test Range (AFWTR). Debris objects in space refer to the collection of defunct objects orbiting the Earth. Examples of debris include non-operational satellites, rocket bodies, and fragments generated from explosions, collisions, or faulty payload assembly.

Loading next visibility...
Identifier
19950, 1965-027AY
Orbit
LEO
Country
Flag of USUS
Related business
Manufacturer
Unknown
Mission
Spacecraft
Bus & Motor
Unknown
Mass
Unknown
Launch date (UTC)
1965-04-03 (61 years ago)
Launch vehicle
Unknown
Launch site
Air Force Western Test Range (AFWTR)
Object type
Payload
Rocket body
Debris
Shape & HBR
Unknown shape, 0.1 m
Radar Cross Section
Medium (>0.1 m² and <1 m²)

Expand to show TLE details & history
Last TLE update: 1 day ago

TLE from 1 day ago
0 OPS 4682 DEB
1 19950U 65027AY  26176.94996795 -.00000061  00000-0 -24250-3 0  9999
2 19950  90.2394   9.5108 0030629 163.3478 196.8654 12.95002351553783
Epoch: 2026-06-25T22:47Z
TLE epoch observation values (Epoch: 2026-06-25T22:47:57.230Z)
Latitude
-0.00006°
Longitude
113.43686°
Altitude
1,307.07 km
Speed
7.193 km/s
True Right ascension
00h 38m 02s
True Declination
0° 00' 00"
Sunlit
Object was in daylight at epoch
Visualization orbit readout
Latitude
Unknown
Longitude
Unknown
Altitude
Unknown
Speed
Unknown
Apparent Right ascension
Unknown
Apparent Declination
Unknown
Sunlit
N/A
Visualization observer readout
Local Sidereal Time
11:42:28
Azimuth
Unknown
Elevation
Unknown
Doppler factor
Unknown
Orbital elements
Apogee altitude
1,302.318 km
Perigee altitude
1,255.412 km
Semi-major axis
7,657.002 km
Eccentricity
0.00306
Inclination
90.2394°
RAAN
9.5108°
Arg. of periapsis
163.3478°
True anomaly
196.76394°
Mean anomaly
196.8654°
Eccentric anomaly
196.81463°
Mean motion
3.23933 °/min
Orbital period
111.13 mins
BSTAR
-0.0002425
Loading maneuver chart data...
Computing Atmospheric mass density...
Loading historical data...
Loading historical data...
Loading historical data...
Loading historical data...
Loading historical data...
Loading historical data...
Loading historical data...

Documentation

Showing up to 5 results
|